| time (UTC) | temp F | wind direction | speed MPH | gust MPH | rain 1hr in | rain 24hr in | rain mn in | humidity % | barometer mb |
| 20260507080346 | 52 | 56 | 1.0 | 5.0 | 0.00 | 0.00 | 0.00 | 1 | 1008.8 |
| 20260507075846 | 51 | 72 | 2.0 | 4.0 | 0.00 | 0.00 | 0.00 | 1 | 1008.7 |
| 20260507075346 | 52 | 72 | 2.0 | 3.0 | 0.00 | 0.00 | 0.00 | 1 | 1008.7 |
| 20260507074846 | 52 | 81 | 0.0 | 0.0 | 0.00 | 0.00 | 0.00 | 1 | 1008.7 |
| 20260507074346 | 51 | 96 | 0.0 | 0.0 | 0.00 | 0.00 | 0.00 | 1 | 1008.7 |
| 20260507073846 | 50 | 62 | 0.0 | 3.0 | 0.00 | 0.00 | 0.00 | 1 | 1008.8 |
| 20260507073346 | 49 | 99 | 2.0 | 3.0 | 0.00 | 0.00 | 0.00 | 1 | 1008.8 |
| 20260507072846 | 49 | 84 | 1.0 | 2.0 | 0.00 | 0.00 | 0.00 | 1 | 1008.8 |
| 20260507072346 | 50 | 60 | 0.0 | 1.0 | 0.00 | 0.00 | 0.00 | 1 | 1008.9 |
| 20260507071846 | 50 | 110 | 0.0 | 0.0 | 0.00 | 0.00 | 0.00 | 1 | 1008.8 |
| 20260507071346 | 49 | 68 | 0.0 | 1.0 | 0.00 | 0.00 | 0.00 | 1 | 1008.9 |
| 20260507070846 | 49 | 88 | 0.0 | 2.0 | 0.00 | 0.00 | 0.00 | 1 | 1009.0 |
| 20260507070346 | 49 | 68 | 2.0 | 2.0 | 0.00 | 0.00 | 0.00 | 1 | 1009.1 |
| 20260507065846 | 50 | 123 | 0.0 | 0.0 | 0.00 | 0.00 | 0.00 | 1 | 1009.1 |
| 20260507065346 | 49 | 138 | 0.0 | 2.0 | 0.00 | 0.00 | 0.00 | 1 | 1009.0 |
| 20260507064846 | 50 | 103 | 0.0 | 2.0 | 0.00 | 0.00 | 0.00 | 1 | 1009.0 |
| 20260507064346 | 50 | 121 | 0.0 | 0.0 | 0.00 | 0.00 | 0.00 | 1 | 1009.1 |
| 20260507063846 | 50 | 110 | 0.0 | 0.0 | 0.00 | 0.00 | 0.00 | 1 | 1009.0 |
| 20260507063346 | 50 | 234 | 0.0 | 0.0 | 0.00 | 0.00 | 0.00 | 1 | 1009.1 |
| 20260507062846 | 49 | 235 | 0.0 | 0.0 | 0.00 | 0.00 | 0.00 | 1 | 1009.1 |
| 20260507062346 | 47 | 235 | 0.0 | 0.0 | 0.00 | 0.00 | 0.00 | 1 | 1009.1 |
| 20260507061846 | 46 | 235 | 0.0 | 0.0 | 0.00 | 0.00 | 0.00 | 1 | 1009.1 |
| 20260507061346 | 45 | 235 | 0.0 | 0.0 | 0.00 | 0.00 | 0.00 | 1 | 1009.1 |
| 20260507060846 | 45 | 101 | 0.0 | 0.0 | 0.00 | 0.00 | 0.00 | 1 | 1009.1 |
| 20260507060346 | 44 | 91 | 0.0 | 0.0 | 0.00 | 0.00 | 0.00 | 1 | 1009.2 |
| 20260507055846 | 44 | 292 | 0.0 | 1.0 | 0.00 | 0.00 | 0.00 | 1 | 1009.1 |
| 20260507055346 | 44 | 273 | 0.0 | 1.0 | 0.00 | 0.00 | 0.00 | 1 | 1009.2 |
| 20260507054846 | 44 | 321 | 0.0 | 0.0 | 0.00 | 0.00 | 0.00 | 1 | 1009.1 |
| 20260507054346 | 44 | 321 | 0.0 | 1.0 | 0.00 | 0.00 | 0.00 | 1 | 1009.1 |
| 20260507053846 | 45 | 321 | 0.0 | 0.0 | 0.00 | 0.00 | 0.00 | 1 | 1009.0 |
| 20260507053346 | 45 | 321 | 0.0 | 2.0 | 0.00 | 0.00 | 0.00 | 1 | 1009.1 |
| 20260507052846 | 44 | 320 | 0.0 | 3.0 | 0.00 | 0.00 | 0.00 | 1 | 1009.2 |
| 20260507052346 | 44 | 285 | 1.0 | 5.0 | 0.00 | 0.00 | 0.00 | 1 | 1009.2 |
| 20260507051846 | 44 | 257 | 0.0 | 7.0 | 0.00 | 0.00 | 0.00 | 1 | 1009.2 |
| 20260507051346 | 44 | 309 | 0.0 | 1.0 | 0.00 | 0.00 | 0.00 | 1 | 1008.9 |
| 20260507050846 | 44 | 277 | 0.0 | 2.0 | 0.00 | 0.00 | 0.00 | 1 | 1009.2 |
| 20260507050346 | 44 | 200 | 1.0 | 2.0 | 0.00 | 0.00 | 0.00 | 1 | 1009.3 |
| 20260507045846 | 44 | 257 | 0.0 | 0.0 | 0.00 | 0.00 | 0.00 | 1 | 1009.3 |
| 20260507045346 | 43 | 257 | 0.0 | 0.0 | 0.00 | 0.00 | 0.00 | 1 | 1009.4 |
| 20260507044846 | 43 | 257 | 0.0 | 0.0 | 0.00 | 0.00 | 0.00 | 1 | 1009.5 |
| 20260507044346 | 43 | 257 | 0.0 | 0.0 | 0.00 | 0.00 | 0.00 | 1 | 1009.5 |
| 20260507043846 | 43 | 257 | 0.0 | 0.0 | 0.00 | 0.00 | 0.00 | 1 | 1009.4 |
| 20260507043346 | 43 | 257 | 0.0 | 0.0 | 0.00 | 0.00 | 0.00 | 1 | 1009.4 |
| 20260507042846 | 43 | 257 | 0.0 | 0.0 | 0.00 | 0.00 | 0.00 | 1 | 1009.4 |
| 20260507042346 | 43 | 257 | 0.0 | 0.0 | 0.00 | 0.00 | 0.00 | 1 | 1009.4 |
| 20260507041846 | 43 | 257 | 0.0 | 0.0 | 0.00 | 0.00 | 0.00 | 1 | 1009.4 |
| 20260507041346 | 43 | 257 | 0.0 | 0.0 | 0.00 | 0.00 | 0.00 | 1 | 1009.4 |
| 20260507040846 | 43 | 257 | 0.0 | 0.0 | 0.00 | 0.00 | 0.00 | 1 | 1009.5 |
| 20260507040346 | 43 | 257 | 0.0 | 0.0 | 0.00 | 0.00 | 0.00 | 1 | 1009.6 |
| 20260507035846 | 43 | 257 | 0.0 | 0.0 | 0.00 | 0.00 | 0.00 | 1 | 1009.6 |
| 20260507035346 | 43 | 257 | 0.0 | 0.0 | 0.00 | 0.00 | 0.00 | 1 | 1009.7 |
| 20260507034846 | 43 | 257 | 0.0 | 0.0 | 0.00 | 0.00 | 0.00 | 1 | 1009.7 |
| 20260507034346 | 43 | 257 | 0.0 | 1.0 | 0.00 | 0.00 | 0.00 | 1 | 1009.7 |
| 20260507033846 | 43 | 257 | 0.0 | 1.0 | 0.00 | 0.00 | 0.00 | 1 | 1009.8 |
| 20260507033346 | 43 | 243 | 0.0 | 0.0 | 0.00 | 0.00 | 0.00 | 1 | 1009.8 |
| 20260507032846 | 43 | 242 | 0.0 | 0.0 | 0.00 | 0.00 | 0.00 | 1 | 1009.9 |
| 20260507032346 | 43 | 243 | 0.0 | 0.0 | 0.00 | 0.00 | 0.00 | 1 | 1009.9 |
| 20260507031846 | 43 | 243 | 0.0 | 0.0 | 0.00 | 0.00 | 0.00 | 1 | 1009.9 |
| 20260507031346 | 44 | 242 | 0.0 | 0.0 | 0.00 | 0.00 | 0.00 | 1 | 1009.9 |
| 20260507030846 | 44 | 242 | 0.0 | 0.0 | 0.00 | 0.00 | 0.00 | 1 | 1010.0 |
| 20260507030346 | 44 | 243 | 0.0 | 0.0 | 0.00 | 0.00 | 0.00 | 1 | 1010.0 |
| 20260507025846 | 44 | 242 | 0.0 | 0.0 | 0.00 | 0.00 | 0.00 | 1 | 1010.1 |
| 20260507025346 | 44 | 242 | 0.0 | 0.0 | 0.00 | 0.00 | 0.00 | 1 | 1010.1 |
| 20260507024846 | 44 | 242 | 0.0 | 0.0 | 0.00 | 0.00 | 0.00 | 1 | 1010.2 |
| 20260507024346 | 44 | 242 | 0.0 | 0.0 | 0.00 | 0.00 | 0.00 | 1 | 1010.2 |
| 20260507023846 | 44 | 243 | 0.0 | 0.0 | 0.00 | 0.00 | 0.00 | 1 | 1010.2 |
| 20260507023346 | 44 | 242 | 0.0 | 0.0 | 0.00 | 0.00 | 0.00 | 1 | 1010.3 |
| 20260507022846 | 44 | 243 | 0.0 | 0.0 | 0.00 | 0.00 | 0.00 | 1 | 1010.2 |
| 20260507022346 | 44 | 243 | 0.0 | 0.0 | 0.00 | 0.00 | 0.00 | 1 | 1010.3 |
| 20260507021846 | 44 | 240 | 0.0 | 0.0 | 0.00 | 0.00 | 0.00 | 1 | 1010.4 |
| 20260507021346 | 44 | 240 | 0.0 | 0.0 | 0.00 | 0.00 | 0.00 | 1 | 1010.5 |
| 20260507020846 | 44 | 240 | 0.0 | 0.0 | 0.00 | 0.00 | 0.00 | 1 | 1010.5 |
| 20260507020346 | 44 | 240 | 0.0 | 0.0 | 0.00 | 0.00 | 0.00 | 1 | 1010.5 |
| 20260507015846 | 44 | 240 | 0.0 | 0.0 | 0.00 | 0.00 | 0.00 | 1 | 1010.6 |
| 20260507015346 | 44 | 240 | 0.0 | 0.0 | 0.00 | 0.00 | 0.00 | 1 | 1010.6 |
| 20260507014846 | 44 | 240 | 0.0 | 0.0 | 0.00 | 0.00 | 0.00 | 1 | 1010.7 |
| 20260507014346 | 44 | 240 | 0.0 | 0.0 | 0.00 | 0.00 | 0.00 | 1 | 1010.7 |
| 20260507013846 | 44 | 240 | 0.0 | 0.0 | 0.00 | 0.00 | 0.00 | 1 | 1010.8 |
| 20260507013346 | 44 | 240 | 0.0 | 0.0 | 0.00 | 0.00 | 0.00 | 1 | 1010.8 |
| 20260507012846 | 44 | 131 | 0.0 | 0.0 | 0.00 | 0.00 | 0.00 | 1 | 1010.9 |
| 20260507012346 | 44 | 131 | 0.0 | 0.0 | 0.00 | 0.00 | 0.00 | 1 | 1010.9 |
| 20260507011847 | 44 | 131 | 0.0 | 0.0 | 0.00 | 0.00 | 0.00 | 1 | 1011.0 |
| 20260507011346 | 44 | 129 | 0.0 | 0.0 | 0.00 | 0.00 | 0.00 | 1 | 1011.1 |
| 20260507010846 | 44 | 127 | 0.0 | 1.0 | 0.00 | 0.00 | 0.00 | 1 | 1011.2 |
| 20260507010346 | 44 | 121 | 0.0 | 1.0 | 0.00 | 0.00 | 0.00 | 1 | 1011.2 |
| 20260507005846 | 44 | 264 | 0.0 | 1.0 | 0.00 | 0.00 | 0.00 | 1 | 1011.2 |
| 20260507005346 | 44 | 272 | 0.0 | 1.0 | 0.00 | 0.00 | 0.00 | 1 | 1011.3 |
| 20260507004846 | 44 | 272 | 0.0 | 0.0 | 0.00 | 0.00 | 0.00 | 1 | 1011.3 |
| 20260507004346 | 44 | 272 | 0.0 | 0.0 | 0.00 | 0.00 | 0.00 | 1 | 1011.4 |
| 20260507003846 | 44 | 272 | 0.0 | 0.0 | 0.00 | 0.00 | 0.00 | 1 | 1011.4 |
| 20260507003346 | 44 | 272 | 0.0 | 0.0 | 0.00 | 0.00 | 0.00 | 1 | 1011.5 |
| 20260507002846 | 44 | 272 | 0.0 | 0.0 | 0.00 | 0.00 | 0.00 | 1 | 1011.6 |
| 20260507002346 | 44 | 272 | 0.0 | 0.0 | 0.00 | 0.00 | 0.00 | 1 | 1011.6 |
| 20260507001846 | 44 | 272 | 0.0 | 0.0 | 0.00 | 0.00 | 0.00 | 1 | 1011.6 |
| 20260507001346 | 44 | 272 | 0.0 | 0.0 | 0.00 | 0.00 | 0.00 | 1 | 1011.6 |
| 20260507000846 | 44 | 271 | 0.0 | 0.0 | 0.00 | 0.00 | 0.00 | 1 | 1011.7 |
| 20260507000346 | 44 | 272 | 0.0 | 0.0 | 0.00 | 0.00 | 0.00 | 1 | 1011.7 |
| 20260506235846 | 44 | 272 | 0.0 | 0.0 | 0.00 | 0.00 | 0.00 | 1 | 1011.7 |
| 20260506235346 | 45 | 272 | 0.0 | 0.0 | 0.00 | 0.00 | 0.00 | 1 | 1011.8 |
| 20260506234846 | 45 | 272 | 0.0 | 0.0 | 0.00 | 0.00 | 0.00 | 1 | 1011.8 |
| 20260506234346 | 45 | 272 | 0.0 | 0.0 | 0.00 | 0.00 | 0.00 | 1 | 1011.8 |
| 20260506233846 | 45 | 272 | 0.0 | 0.0 | 0.00 | 0.00 | 0.00 | 1 | 1011.9 |
| 20260506233346 | 45 | 263 | 0.0 | 0.0 | 0.00 | 0.00 | 0.00 | 1 | 1011.9 |
| 20260506232846 | 45 | 248 | 0.0 | 4.0 | 0.00 | 0.00 | 0.00 | 1 | 1011.9 |
| 20260506232346 | 45 | 264 | 0.0 | 6.0 | 0.00 | 0.00 | 0.00 | 1 | 1012.0 |
| 20260506231846 | 45 | 274 | 2.0 | 4.0 | 0.00 | 0.00 | 0.00 | 1 | 1012.0 |
| 20260506231346 | 45 | 263 | 2.0 | 3.0 | 0.00 | 0.00 | 0.00 | 1 | 1012.0 |
| 20260506230846 | 45 | 278 | 0.0 | 1.0 | 0.00 | 0.00 | 0.00 | 1 | 1012.0 |
| 20260506230346 | 45 | 279 | 1.0 | 2.0 | 0.00 | 0.00 | 0.00 | 1 | 1012.0 |
| 20260506225846 | 45 | 281 | 0.0 | 2.0 | 0.00 | 0.00 | 0.00 | 1 | 1012.0 |
| 20260506225346 | 45 | 278 | 0.0 | 0.0 | 0.00 | 0.00 | 0.00 | 1 | 1012.1 |
| 20260506224846 | 45 | 264 | 0.0 | 2.0 | 0.00 | 0.00 | 0.00 | 1 | 1012.1 |
| 20260506224346 | 45 | 314 | 1.0 | 2.0 | 0.00 | 0.00 | 0.00 | 1 | 1012.2 |
| 20260506223846 | 45 | 271 | 0.0 | 2.0 | 0.00 | 0.00 | 0.00 | 1 | 1012.2 |
| 20260506223346 | 45 | 271 | 0.0 | 2.0 | 0.00 | 0.00 | 0.00 | 1 | 1012.2 |
| 20260506222846 | 46 | 303 | 0.0 | 2.0 | 0.00 | 0.00 | 0.00 | 1 | 1012.2 |
| 20260506222346 | 46 | 302 | 0.0 | 3.0 | 0.00 | 0.00 | 0.00 | 1 | 1012.3 |
| 20260506221846 | 46 | 270 | 1.0 | 3.0 | 0.00 | 0.00 | 0.00 | 1 | 1012.3 |
| 20260506221346 | 46 | 255 | 0.0 | 2.0 | 0.00 | 0.00 | 0.00 | 1 | 1012.3 |
| 20260506220846 | 46 | 298 | 0.0 | 3.0 | 0.00 | 0.00 | 0.00 | 1 | 1012.4 |
| 20260506220346 | 46 | 264 | 0.0 | 2.0 | 0.00 | 0.00 | 0.00 | 1 | 1012.4 |
| 20260506215846 | 46 | 274 | 0.0 | 3.0 | 0.00 | 0.00 | 0.00 | 1 | 1012.4 |
| 20260506215346 | 46 | 307 | 1.0 | 5.0 | 0.00 | 0.00 | 0.00 | 1 | 1012.5 |
| 20260506214846 | 46 | 288 | 2.0 | 7.0 | 0.00 | 0.00 | 0.00 | 1 | 1012.5 |
| 20260506214346 | 46 | 256 | 2.0 | 7.0 | 0.00 | 0.00 | 0.00 | 1 | 1012.4 |
| 20260506213846 | 46 | 296 | 1.0 | 6.0 | 0.00 | 0.00 | 0.00 | 1 | 1012.5 |
| 20260506213346 | 47 | 264 | 0.0 | 5.0 | 0.00 | 0.00 | 0.00 | 1 | 1012.4 |
| 20260506212846 | 47 | 288 | 2.0 | 3.0 | 0.00 | 0.00 | 0.00 | 1 | 1012.5 |
| 20260506212346 | 47 | 273 | 0.0 | 5.0 | 0.00 | 0.00 | 0.00 | 1 | 1012.6 |
| 20260506211846 | 47 | 262 | 0.0 | 5.0 | 0.00 | 0.00 | 0.00 | 1 | 1012.6 |
| 20260506211346 | 47 | 276 | 0.0 | 3.0 | 0.00 | 0.00 | 0.00 | 1 | 1012.6 |
| 20260506210846 | 47 | 293 | 2.0 | 6.0 | 0.00 | 0.00 | 0.00 | 1 | 1012.6 |
| 20260506210346 | 47 | 223 | 1.0 | 5.0 | 0.00 | 0.00 | 0.00 | 1 | 1012.6 |
| 20260506205846 | 47 | 270 | 1.0 | 3.0 | 0.00 | 0.00 | 0.00 | 1 | 1012.5 |
| 20260506205346 | 48 | 303 | 2.0 | 3.0 | 0.00 | 0.00 | 0.00 | 1 | 1012.6 |
| 20260506204846 | 48 | 2 | 0.0 | 3.0 | 0.00 | 0.00 | 0.00 | 1 | 1012.5 |
| 20260506204346 | 48 | 310 | 0.0 | 3.0 | 0.00 | 0.00 | 0.00 | 1 | 1012.4 |
| 20260506203846 | 48 | 258 | 0.0 | 5.0 | 0.00 | 0.00 | 0.00 | 1 | 1012.3 |
| 20260506203346 | 48 | 316 | 0.0 | 6.0 | 0.00 | 0.00 | 0.00 | 1 | 1012.4 |
| 20260506202846 | 48 | 300 | 3.0 | 5.0 | 0.00 | 0.00 | 0.00 | 1 | 1012.3 |
| 20260506202346 | 48 | 276 | 2.0 | 7.0 | 0.00 | 0.00 | 0.00 | 1 | 1012.3 |
| 20260506201846 | 48 | 310 | 1.0 | 5.0 | 0.00 | 0.00 | 0.00 | 1 | 1012.3 |
| 20260506201346 | 49 | 258 | 1.0 | 4.0 | 0.00 | 0.00 | 0.00 | 1 | 1012.2 |
| 20260506200846 | 49 | 326 | 1.0 | 6.0 | 0.00 | 0.00 | 0.00 | 1 | 1012.2 |
| 20260506200346 | 49 | 298 | 2.0 | 4.0 | 0.00 | 0.00 | 0.00 | 1 | 1012.1 |
| 20260506195846 | 49 | 240 | 2.0 | 2.0 | 0.00 | 0.00 | 0.00 | 1 | 1012.1 |
| 20260506195346 | 50 | 255 | 0.0 | 5.0 | 0.00 | 0.00 | 0.00 | 1 | 1012.1 |
| 20260506194846 | 50 | 221 | 0.0 | 1.0 | 0.00 | 0.00 | 0.00 | 2 | 1011.9 |
| 20260506194346 | 51 | 297 | 0.0 | 5.0 | 0.00 | 0.00 | 0.00 | 6 | 1011.9 |
| 20260506193846 | 51 | 291 | 0.0 | 2.0 | 0.00 | 0.00 | 0.00 | 10 | 1011.8 |
| 20260506193346 | 51 | 278 | 2.0 | 2.0 | 0.00 | 0.00 | 0.00 | 15 | 1011.8 |
| 20260506192846 | 52 | 277 | 0.0 | 2.0 | 0.00 | 0.00 | 0.00 | 20 | 1011.8 |
| 20260506192346 | 52 | 323 | 0.0 | 0.0 | 0.00 | 0.00 | 0.00 | 28 | 1011.6 |
| 20260506191846 | 52 | 323 | 0.0 | 3.0 | 0.00 | 0.00 | 0.00 | 36 | 1011.7 |
| 20260506191346 | 52 | 11 | 1.0 | 2.0 | 0.00 | 0.00 | 0.00 | 43 | 1011.6 |
| 20260506190846 | 53 | 240 | 0.0 | 0.0 | 0.00 | 0.00 | 0.00 | 46 | 1011.6 |
| 20260506190346 | 53 | 240 | 0.0 | 0.0 | 0.00 | 0.00 | 0.00 | 48 | 1011.5 |
| 20260506185846 | 53 | 240 | 0.0 | 0.0 | 0.00 | 0.00 | 0.00 | 48 | 1011.5 |
| 20260506185346 | 53 | 240 | 0.0 | 0.0 | 0.00 | 0.00 | 0.00 | 46 | 1011.5 |
| 20260506184846 | 53 | 240 | 0.0 | 0.0 | 0.00 | 0.00 | 0.00 | 46 | 1011.5 |
| 20260506184346 | 54 | 240 | 0.0 | 0.0 | 0.00 | 0.00 | 0.00 | 43 | 1011.5 |
| 20260506183846 | 54 | 240 | 0.0 | 1.0 | 0.00 | 0.00 | 0.00 | 45 | 1011.5 |
| 20260506183346 | 54 | 167 | 0.0 | 0.0 | 0.00 | 0.00 | 0.00 | 47 | 1011.5 |
| 20260506182846 | 55 | 114 | 0.0 | 0.0 | 0.00 | 0.00 | 0.00 | 47 | 1011.4 |
| 20260506182346 | 54 | 114 | 0.0 | 0.0 | 0.00 | 0.00 | 0.00 | 49 | 1011.5 |
| 20260506181846 | 54 | 114 | 0.0 | 2.0 | 0.00 | 0.00 | 0.00 | 50 | 1011.5 |
| 20260506181346 | 54 | 269 | 0.0 | 5.0 | 0.00 | 0.00 | 0.00 | 49 | 1011.6 |
| 20260506180846 | 55 | 110 | 0.0 | 9.0 | 0.00 | 0.00 | 0.00 | 50 | 1011.6 |
| 20260506180346 | 55 | 113 | 5.0 | 8.0 | 0.00 | 0.00 | 0.00 | 50 | 1011.7 |
| 20260506175846 | 56 | 183 | 0.0 | 2.0 | 0.00 | 0.00 | 0.00 | 50 | 1011.7 |
| 20260506175346 | 56 | 198 | 2.0 | 2.0 | 0.00 | 0.00 | 0.00 | 50 | 1011.7 |
| 20260506174846 | 56 | 243 | 0.0 | 2.0 | 0.00 | 0.00 | 0.00 | 50 | 1011.7 |
| 20260506174346 | 56 | 255 | 1.0 | 1.0 | 0.00 | 0.00 | 0.00 | 49 | 1011.6 |
| 20260506173846 | 57 | 253 | 0.0 | 3.0 | 0.00 | 0.00 | 0.00 | 49 | 1011.6 |
| 20260506173346 | 57 | 256 | 0.0 | 6.0 | 0.00 | 0.00 | 0.00 | 49 | 1011.6 |
| 20260506172846 | 57 | 327 | 3.0 | 5.0 | 0.00 | 0.00 | 0.00 | 49 | 1011.6 |
| 20260506172346 | 57 | 266 | 3.0 | 7.0 | 0.00 | 0.00 | 0.00 | 48 | 1011.6 |
| 20260506171846 | 57 | 268 | 0.0 | 4.0 | 0.00 | 0.00 | 0.00 | 48 | 1011.5 |
| 20260506171346 | 56 | 339 | 4.0 | 7.0 | 0.00 | 0.00 | 0.00 | 49 | 1011.6 |
| 20260506170846 | 56 | 303 | 4.0 | 6.0 | 0.00 | 0.00 | 0.00 | 48 | 1011.6 |
| 20260506170346 | 56 | 276 | 0.0 | 9.0 | 0.00 | 0.00 | 0.00 | 48 | 1011.6 |
| 20260506165846 | 56 | 340 | 4.0 | 8.0 | 0.00 | 0.00 | 0.00 | 48 | 1011.6 |
| 20260506165346 | 56 | 297 | 2.0 | 6.0 | 0.00 | 0.00 | 0.00 | 47 | 1011.5 |
| 20260506164846 | 56 | 267 | 2.0 | 5.0 | 0.00 | 0.00 | 0.00 | 47 | 1011.5 |
| 20260506164346 | 55 | 285 | 1.0 | 8.0 | 0.00 | 0.00 | 0.00 | 48 | 1011.5 |
| 20260506163846 | 56 | 299 | 3.0 | 8.0 | 0.00 | 0.00 | 0.00 | 46 | 1011.6 |
| 20260506163346 | 55 | 267 | 3.0 | 7.0 | 0.00 | 0.00 | 0.00 | 45 | 1011.5 |
| 20260506162846 | 55 | 271 | 2.0 | 8.0 | 0.00 | 0.00 | 0.00 | 42 | 1011.4 |
| 20260506162346 | 54 | 303 | 2.0 | 7.0 | 0.00 | 0.01 | 0.00 | 42 | 1011.4 |
| 20260506161846 | 53 | 272 | 2.0 | 8.0 | 0.00 | 0.02 | 0.00 | 24 | 1011.4 |
| 20260506161346 | 53 | 304 | 6.0 | 7.0 | 0.00 | 0.04 | 0.00 | 32 | 1011.4 |
| 20260506160846 | 53 | 288 | 3.0 | 6.0 | 0.00 | 0.04 | 0.00 | 37 | 1011.4 |
| 20260506160346 | 53 | 277 | 5.0 | 5.0 | 0.00 | 0.04 | 0.00 | 45 | 1011.6 |
| 20260506155846 | 54 | 316 | 2.0 | 8.0 | 0.00 | 0.04 | 0.00 | 47 | 1011.6 |
| 20260506155346 | 54 | 271 | 4.0 | 10.0 | 0.00 | 0.04 | 0.00 | 49 | 1011.6 |
| 20260506154846 | 54 | 276 | 3.0 | 9.0 | 0.00 | 0.04 | 0.00 | 50 | 1011.6 |
| 20260506154346 | 55 | 212 | 3.0 | 11.0 | 0.00 | 0.04 | 0.00 | 51 | 1011.6 |
| 20260506153846 | 55 | 305 | 5.0 | 11.0 | 0.00 | 0.04 | 0.00 | 52 | 1011.6 |
| 20260506153346 | 55 | 275 | 1.0 | 8.0 | 0.00 | 0.04 | 0.00 | 51 | 1011.6 |
| 20260506152846 | 56 | 261 | 5.0 | 6.0 | 0.00 | 0.04 | 0.00 | 51 | 1011.6 |
| 20260506152346 | 57 | 307 | 3.0 | 7.0 | 0.00 | 0.04 | 0.00 | 51 | 1011.6 |
| 20260506151846 | 57 | 340 | 2.0 | 7.0 | 0.00 | 0.04 | 0.00 | 51 | 1011.6 |
| 20260506151346 | 57 | 339 | 4.0 | 4.0 | 0.00 | 0.04 | 0.00 | 51 | 1011.6 |
| 20260506150846 | 57 | 278 | 1.0 | 6.0 | 0.00 | 0.04 | 0.00 | 51 | 1011.7 |
| 20260506150346 | 58 | 299 | 0.0 | 6.0 | 0.00 | 0.04 | 0.00 | 50 | 1011.7 |
| 20260506145846 | 58 | 240 | 1.0 | 4.0 | 0.00 | 0.04 | 0.00 | 50 | 1011.7 |
| 20260506145346 | 58 | 305 | 2.0 | 6.0 | 0.00 | 0.04 | 0.00 | 50 | 1011.7 |
| 20260506144846 | 59 | 254 | 2.0 | 6.0 | 0.00 | 0.04 | 0.00 | 49 | 1011.7 |
| 20260506144346 | 60 | 272 | 2.0 | 5.0 | 0.00 | 0.04 | 0.00 | 48 | 1011.7 |
| 20260506143846 | 61 | 271 | 0.0 | 3.0 | 0.00 | 0.04 | 0.00 | 49 | 1011.8 |
| 20260506143346 | 61 | 331 | 1.0 | 5.0 | 0.00 | 0.04 | 0.00 | 49 | 1011.8 |
| 20260506142846 | 62 | 302 | 4.0 | 7.0 | 0.00 | 0.04 | 0.00 | 49 | 1011.7 |
| 20260506142346 | 62 | 242 | 1.0 | 7.0 | 0.00 | 0.04 | 0.00 | 48 | 1011.7 |
| 20260506141846 | 62 | 317 | 0.0 | 3.0 | 0.00 | 0.04 | 0.00 | 48 | 1011.7 |
| 20260506141346 | 61 | 46 | 0.0 | 5.0 | 0.00 | 0.04 | 0.00 | 48 | 1011.7 |
| 20260506140846 | 61 | 76 | 3.0 | 3.0 | 0.00 | 0.04 | 0.00 | 48 | 1011.7 |
| 20260506140346 | 61 | 257 | 0.0 | 6.0 | 0.00 | 0.04 | 0.00 | 48 | 1011.8 |
| 20260506135846 | 61 | 354 | 1.0 | 5.0 | 0.00 | 0.06 | 0.00 | 48 | 1011.7 |
| 20260506135346 | 60 | 55 | 1.0 | 4.0 | 0.00 | 0.07 | 0.00 | 48 | 1011.8 |
| 20260506134846 | 60 | 340 | 2.0 | 6.0 | 0.00 | 0.07 | 0.00 | 47 | 1011.8 |
| 20260506134346 | 61 | 314 | 0.0 | 3.0 | 0.00 | 0.07 | 0.00 | 47 | 1011.9 |
| 20260506133846 | 59 | 37 | 0.0 | 2.0 | 0.00 | 0.07 | 0.00 | 47 | 1011.8 |
| 20260506133346 | 58 | 351 | 0.0 | 4.0 | 0.00 | 0.08 | 0.00 | 49 | 1011.9 |
| 20260506132846 | 58 | 342 | 0.0 | 3.0 | 0.00 | 0.08 | 0.00 | 49 | 1012.0 |
| 20260506132346 | 58 | 290 | 1.0 | 3.0 | 0.00 | 0.08 | 0.00 | 49 | 1012.1 |
| 20260506131846 | 58 | 275 | 0.0 | 5.0 | 0.00 | 0.08 | 0.00 | 49 | 1012.1 |
| 20260506131346 | 58 | 334 | 1.0 | 3.0 | 0.00 | 0.08 | 0.00 | 48 | 1012.1 |
| 20260506130846 | 57 | 263 | 1.0 | 3.0 | 0.00 | 0.08 | 0.00 | 48 | 1012.1 |
| 20260506130346 | 57 | 324 | 0.0 | 4.0 | 0.00 | 0.08 | 0.00 | 48 | 1012.1 |
| 20260506125846 | 57 | 52 | 0.0 | 2.0 | 0.00 | 0.08 | 0.00 | 48 | 1012.1 |
| 20260506125346 | 58 | 329 | 0.0 | 1.0 | 0.00 | 0.08 | 0.00 | 48 | 1012.2 |
| 20260506124846 | 58 | 339 | 1.0 | 3.0 | 0.00 | 0.08 | 0.00 | 47 | 1012.2 |
| 20260506124346 | 59 | 319 | 0.0 | 3.0 | 0.00 | 0.08 | 0.00 | 46 | 1012.2 |
| 20260506123846 | 59 | 126 | 0.0 | 2.0 | 0.00 | 0.08 | 0.00 | 45 | 1012.2 |
| 20260506123346 | 58 | 24 | 0.0 | 6.0 | 0.00 | 0.08 | 0.00 | 46 | 1012.3 |
| 20260506122846 | 58 | 44 | 0.0 | 3.0 | 0.00 | 0.08 | 0.00 | 45 | 1012.4 |
| 20260506122346 | 58 | 29 | 0.0 | 4.0 | 0.00 | 0.08 | 0.00 | 46 | 1012.5 |
| 20260506121846 | 58 | 40 | 0.0 | 2.0 | 0.00 | 0.08 | 0.00 | 46 | 1012.6 |
| 20260506121346 | 59 | 332 | 0.0 | 2.0 | 0.00 | 0.08 | 0.00 | 44 | 1012.6 |
| 20260506120846 | 58 | 43 | 1.0 | 7.0 | 0.00 | 0.08 | 0.00 | 44 | 1012.6 |
| 20260506120346 | 58 | 11 | 1.0 | 4.0 | 0.00 | 0.08 | 0.00 | 45 | 1012.7 |
| 20260506115846 | 57 | 8 | 0.0 | 3.0 | 0.00 | 0.08 | 0.00 | 46 | 1012.8 |
| 20260506115346 | 58 | 325 | 2.0 | 5.0 | 0.00 | 0.08 | 0.00 | 46 | 1012.7 |
| 20260506114846 | 58 | 330 | 0.0 | 6.0 | 0.00 | 0.08 | 0.00 | 43 | 1012.7 |
| 20260506114346 | 58 | 286 | 1.0 | 5.0 | 0.00 | 0.08 | 0.00 | 45 | 1012.8 |
| 20260506113846 | 58 | 334 | 1.0 | 6.0 | 0.00 | 0.08 | 0.00 | 45 | 1012.9 |
| 20260506113346 | 58 | 268 | 0.0 | 3.0 | 0.00 | 0.08 | 0.00 | 44 | 1012.9 |
| 20260506112846 | 57 | 15 | 0.0 | 2.0 | 0.00 | 0.08 | 0.00 | 43 | 1012.9 |
| 20260506112346 | 56 | 79 | 0.0 | 2.0 | 0.00 | 0.08 | 0.00 | 44 | 1012.9 |
| 20260506111846 | 55 | 109 | 0.0 | 3.0 | 0.00 | 0.08 | 0.00 | 46 | 1013.0 |
| 20260506111346 | 56 | 31 | 0.0 | 4.0 | 0.00 | 0.08 | 0.00 | 44 | 1013.1 |
| 20260506110846 | 55 | 41 | 0.0 | 2.0 | 0.00 | 0.08 | 0.00 | 41 | 1013.1 |
| 20260506110346 | 54 | 328 | 0.0 | 2.0 | 0.00 | 0.08 | 0.00 | 42 | 1013.1 |
| 20260506105846 | 54 | 101 | 0.0 | 2.0 | 0.00 | 0.08 | 0.00 | 46 | 1013.1 |
| 20260506105346 | 54 | 17 | 0.0 | 0.0 | 0.00 | 0.08 | 0.00 | 43 | 1013.1 |
| 20260506104846 | 53 | 323 | 0.0 | 0.0 | 0.00 | 0.08 | 0.00 | 45 | 1013.1 |
| 20260506104346 | 53 | 323 | 0.0 | 0.0 | 0.00 | 0.08 | 0.00 | 43 | 1013.1 |
| 20260506103846 | 52 | 323 | 0.0 | 4.0 | 0.00 | 0.08 | 0.00 | 43 | 1013.2 |
| 20260506103346 | 53 | 311 | 0.0 | 2.0 | 0.00 | 0.08 | 0.00 | 40 | 1013.3 |
| 20260506102846 | 53 | 63 | 1.0 | 1.0 | 0.00 | 0.08 | 0.00 | 40 | 1013.2 |
| 20260506102346 | 53 | 41 | 0.0 | 0.0 | 0.00 | 0.08 | 0.00 | 36 | 1013.2 |
| 20260506101846 | 53 | 313 | 0.0 | 3.0 | 0.00 | 0.08 | 0.00 | 41 | 1013.2 |
| 20260506101346 | 54 | 8 | 0.0 | 2.0 | 0.00 | 0.08 | 0.00 | 39 | 1013.2 |
| 20260506100846 | 54 | 333 | 0.0 | 2.0 | 0.00 | 0.08 | 0.00 | 42 | 1013.2 |
| 20260506100346 | 54 | 237 | 0.0 | 3.0 | 0.00 | 0.08 | 0.00 | 43 | 1013.2 |
| 20260506095846 | 55 | 56 | 0.0 | 3.0 | 0.00 | 0.08 | 0.00 | 29 | 1013.3 |
| 20260506095346 | 54 | 130 | 1.0 | 2.0 | 0.00 | 0.08 | 0.00 | 19 | 1013.3 |
| 20260506094846 | 53 | 95 | 0.0 | 3.0 | 0.00 | 0.08 | 0.00 | 29 | 1013.3 |
| 20260506094346 | 52 | 65 | 0.0 | 2.0 | 0.00 | 0.08 | 0.00 | 23 | 1013.3 |
| 20260506093846 | 51 | 135 | 2.0 | 3.0 | 0.00 | 0.08 | 0.00 | 22 | 1013.2 |
| 20260506093346 | 51 | 85 | 3.0 | 3.0 | 0.00 | 0.08 | 0.00 | 25 | 1013.3 |
| 20260506092846 | 52 | 100 | 1.0 | 2.0 | 0.00 | 0.08 | 0.00 | 19 | 1013.2 |
| 20260506092346 | 51 | 90 | 0.0 | 3.0 | 0.00 | 0.08 | 0.00 | 17 | 1013.3 |
| 20260506091846 | 50 | 179 | 0.0 | 4.0 | 0.00 | 0.08 | 0.00 | 8 | 1013.1 |
| 20260506091346 | 50 | 64 | 1.0 | 4.0 | 0.00 | 0.08 | 0.00 | 7 | 1013.1 |
| 20260506090846 | 50 | 103 | 0.0 | 0.0 | 0.00 | 0.08 | 0.00 | 14 | 1013.1 |
| 20260506090346 | 50 | 227 | 0.0 | 3.0 | 0.00 | 0.08 | 0.00 | 4 | 1013.1 |
| 20260506085846 | 50 | 143 | 0.0 | 2.0 | 0.00 | 0.08 | 0.00 | 1 | 1013.2 |
| 20260506085346 | 50 | 254 | 0.0 | 1.0 | 0.00 | 0.09 | 0.00 | 1 | 1013.2 |
| 20260506084846 | 50 | 58 | 0.0 | 1.0 | 0.00 | 0.09 | 0.00 | 1 | 1013.2 |
| 20260506084346 | 49 | 24 | 0.0 | 0.0 | 0.00 | 0.09 | 0.00 | 1 | 1013.2 |
| 20260506083846 | 48 | 239 | 0.0 | 1.0 | 0.00 | 0.09 | 0.00 | 1 | 1013.3 |
| 20260506083346 | 48 | 290 | 0.0 | 1.0 | 0.00 | 0.09 | 0.00 | 1 | 1013.2 |
| 20260506082846 | 47 | 251 | 0.0 | 0.0 | 0.00 | 0.09 | 0.00 | 1 | 1013.2 |
| 20260506082346 | 47 | 297 | 0.0 | 0.0 | 0.00 | 0.09 | 0.00 | 1 | 1013.2 |
| 20260506081846 | 47 | 347 | 0.0 | 0.0 | 0.00 | 0.09 | 0.00 | 1 | 1013.3 |
| 20260506081346 | 47 | 38 | 0.0 | 0.0 | 0.00 | 0.09 | 0.00 | 1 | 1013.3 |
| 20260506080846 | 47 | 28 | 0.0 | 0.0 | 0.00 | 0.09 | 0.00 | 1 | 1013.3 |